Location: Jodlow
(50.1500°N, 16.7500°E)
Time: 01:30:27
(UTC+01:00)

X-37B - Pass Details

Date: 10 December 2022
Orbit: 277 x 277 km, 45.0° (Epoch: 01 November)

Event Time Altitude Azimuth Distance (km) Brightness Sun altitude
Rises 16:59:31 0° 217° (SW) 1,905 5.2 -10.4°
Reaches altitude 10° 17:02:18 10° 180° (S) 1,097 3.2 -10.8°
Maximum altitude 17:03:14 12° 158° (SSE) 1,020 2.7 -11.0°
Drops below altitude 10° 17:04:10 10° 135° (SE) 1,099 2.7 -11.1°
Enters shadow 17:04:40 - 125° (SE) 1,195 2.7 -11.2°
